Location: Praha
(50.0830°N, 14.4670°E)
Time: 10:41:49
(UTC+02:00)

ISS - Pass Details

Date: 21 May 2019
Orbit: 407 x 410 km, 51.6° (Epoch: 21 May)

Event Time Altitude Azimuth Distance (km) Brightness Sun altitude
Rises 00:23:15 0° 276° (W) 2,335 0.2 -19.4°
Reaches altitude 10° 00:25:21 10° 280° (W) 1,474 -0.8 -19.5°
Maximum altitude 00:28:39 64° 2° (N) 456 -3.4 -19.5°
Drops below altitude 10° 00:31:56 10° 86° (E) 1,475 -1.0 -19.6°
Enters shadow 00:31:57 10° 86° (E) 1,481 -1.0 -19.6°
